www.pogodaiklimat.ru

Погода и климат >> Архив погоды >> Украина >> Гайсин


ПОГОДА в Гайсине

  • Прогноз погоды в Гайсине
  • Монитор погоды в Гайсине

АРХИВ ПОГОДЫ в Гайсине

Время (UTC), дата Ветер
(напр.,м/с)
 
Видим.   Явления Облачность Т
(С)
Тd
(С)
f
(%)
Тe
(С)
Тes
(С)
Комфортность P
(гПа)
Po
(гПа)
Тmin
(С)
Tmax
(С)
R
(мм)
R24
(мм)
S
(см)
00 14.06 В 3 10 км {ливн. осадки} 8/0
[Ac trans Ci fib]
+19.2 +17.5 90 +21 +21 комфорт 1016.0 991.4 2
03 14.06 В 3 10 км 6/0
[Ci fib]
+18.2 +16.5 90 +19 +19 1016.0 991.3
06 14.06 СВ 2 10 км 8/0
[Cs]
+23.4 +18.5 74 +30 +30 очень
душно
1016.0 991.7 +18.0 2
09 14.06 СВ 2 10 км 4/0
[Ac trans Cs]
+28.4 +17.6 52 +33 +45 очень
душно
1017.0 993.1
12 14.06 С 2 10 км 6/3 600 м
[Cu med, cong Ac trans Cc]
+29.3 +17.5 49 +33 +40 душно 1018.0 994.1
15 14.06 СЗ 2 10 км 4/3 600 м
[Cu med, cong Ac trans]
+30.2 +18.3 49 +35 +38 очень
душно
1017.0 993.2
18 14.06 штиль 0 10 км 3/0
[Cs]
+27.1 +17.8 57 +32 +32 очень
душно
1017.0 993.0 +30.5
21 14.06 штиль 0 10 км 3/0
[Ci fib]
+21.4 +18.2 82 +26 +26 душно 1018.0 993.5
00 15.06 З 1 10 км 4/0
[Ac trans]
+19.9 +18.2 90 +24 +24 комфорт 1018.0 993.4
03 15.06 штиль 0 4000 м дымка 8/3 600 м
[Sc Ac trans Cs]
+18.3 +17.3 94 +19 +19 1018.0 993.2
06 15.06 С 1 10 км 8/0
[Ac trans Cs]
+21.6 +17.8 79 +26 +26 душно 1017.0 992.6 +18.1
09 15.06 СВ 2 10 км 3/0
[Ci fib]
+28.6 +15.8 46 +32 +44 душно 1017.0 993.1
12 15.06 СВ 2 10 км 4/3 600 м
[Cu med, cong Ci fib]
+30.5 +15.0 39 +33 +43 душно 1015.0 991.3
15 15.06 СВ 3 10 км 8/3 600 м
[Cu med, cong Ci fib]
+28.7 +17.2 50 +33 +33 очень
душно
1014.0 990.2
18 15.06 С 1 10 км 4/0
[Ci fib]
+27.2 +19.3 62 +33 +33 очень
душно
1014.0 990.1 +30.9
21 15.06 штиль 0 10 км ясно +21.2 +18.9 87 +26 +26 душно 1015.0 990.6
00 16.06 штиль 0 4000 м дымка ясно +19.3 +18.1 93 +21 +21 комфорт 1014.0 989.4
03 16.06 штиль 0 4000 м дымка ясно +17.7 +16.4 92 +18 +18 1014.0 989.3
06 16.06 З 1 10 км ясно +24.9 +18.8 69 +30 +39 душно 1014.0 989.9 +17.5
09 16.06 З 2 10 км 5/4 1000 м
[Cu med, cong Ci fib]
+29.6 +18.1 50 +34 +41 очень
душно
1013.0 989.3
12 16.06 СЗ 2 10 км 8/6 1000 м
[Cu med, cong Ci fib]
+31.5 +16.2 40 +34 +34 душно 1013.0 989.4
15 16.06 СВ 2 10 км 8/4 1000 м
[Cu med, cong Ci fib]
+29.9 +17.3 47 +34 +34 очень
душно
1013.0 989.3
18 16.06 С 1 10 км 8/0
[Ci fib]
+27.4 +20.5 66 +34 +34 очень
душно
1013.0 989.1 +31.8
21 16.06 штиль 0 10 км 4/0
[Ci fib]
+22.0 +19.7 87 +28 +28 душно 1013.0 988.7
00 17.06 штиль 0 4000 м дымка 3/0
[Ci fib]
+20.1 +18.8 92 +23 +23 комфорт 1014.0 989.5
03 17.06 штиль 0 4000 м дымка 4/0
[Ci fib]
+19.4 +18.2 93 +21 +22 комфорт 1015.0 990.4
06 17.06 СЗ 1 10 км 3/0
[Ci fib]
+24.7 +16.7 61 +28 +35 душно 1015.0 990.8 +19.2
09 17.06 СЗ 2 10 км 3/0
[Ci fib]
+28.4 +16.6 49 +32 +44 душно 1014.0 990.2
12 17.06 ЮЗ 3 10 км 4/3 1000 м
[Cu med, cong Ci fib]
+30.4 +17.5 46 +34 +43 очень
душно
1014.0 990.3
15 17.06 З 5 4000 м слаб. ливневой дождь {гроза} 10/10 600 м
[Cb cap]
+21.6 +18.4 82 +26 +26 душно 1015.0 990.6
18 17.06 З 4 10 км {гроза, ливн. осадки} 8/4 600 м
[Sc Ac trans]
+21.2 +19.3 89 +26 +26 душно 1014.0 989.6 +30.6 5
21 17.06 З 3 4000 м дымка 10/0
[Ac und]
+20.4 +19.1 92 +25 +25 комфорт 1015.0 990.5
00 18.06 В 2 4000 м дымка 10/0
[Ci fib]
+19.4 +18.4 94 +22 +22 комфорт 1016.0 991.4
03 18.06 ЮЗ 1 4000 м дымка 4/0
[Ci fib]
+19.3 +18.5 95 +23 +23 комфорт 1016.0 991.4
06 18.06 ЮЗ 3 10 км ясно +21.6 +18.4 82 +26 +33 душно 1016.0 991.6 +19.1
09 18.06 СВ 3 10 км 4/4 600 м
[Cu med, cong]
+25.8 +19.2 67 +31 +41 очень
душно
1016.0 991.9
12 18.06 СЗ 3 10 км 4/4 600 м
[Cu med, cong]
+27.6 +18.6 58 +33 +41 очень
душно
1016.0 992.1
15 18.06 СЗ 3 10 км 3/0
[Ci fib]
+27.1 +17.0 54 +31 +34 душно 1016.0 992.0
18 18.06 СЗ 3 10 км 6/0
[Ci fib]
+24.6 +18.1 67 +29 +29 душно 1016.0 991.8 +28.0
21 18.06 СВ 2 10 км 6/0
[Ci fib]
+20.2 +18.3 89 +24 +24 комфорт 1017.0 992.4
00 19.06 ЮВ 1 10 км ясно +19.0 +16.6 86 +22 +22 комфорт 1017.0 992.3
03 19.06 ЮВ 2 10 км ясно +18.6 +16.0 85 +20 +20 1016.0 991.3
06 19.06 СВ 2 10 км 4/0
[Ci fib]
+23.3 +18.6 75 +29 +35 душно 1016.0 991.7 +18.4
09 19.06 СВ 2 10 км 6 баллов +25.9 +17.0 58 +30 +37 душно 1016.0 991.9
12 19.06 СВ 3 10 км 6/6 600 м
[Cu med, cong]
+28.4 +16.0 47 +32 +37 душно 1015.8 992.0
15 19.06 СВ 2 10 км 3 балла +27.9 +16.2 49 +31 +35 душно 1014.0 990.1
18 19.06 СВ 1 10 км 4/0
[Ci fib]
+25.0 +18.0 65 +29 +29 душно 1014.0 989.9 +28.8
21 19.06 штиль 0 10 км 3 балла +20.5 +18.1 86 +24 +24 комфорт 1014.0 989.5
00 20.06 СВ 1 10 км ясно +18.4 +16.7 90 +20 +20 1015.0 990.3
03 20.06 штиль 0 10 км 3 балла +18.4 +16.6 89 +19 +19 1015.0 990.3
06 20.06 СВ 1 10 км 3/0
[Ci fib]
+25.1 +18.3 66 +30 +36 душно 1014.0 989.9 +18.2
09 20.06 СВ 2 10 км 3 балла +29.1 +15.9 45 +32 +44 душно 1014.0 990.2
12 20.06 ЮВ 2 10 км 8/8 600 м
[Cu med, cong]
+30.6 +16.6 43 +34 +34 очень
душно
1013.0 989.3
15 20.06 В 3 10 км 10 баллов +29.0 +17.8 51 +33 +33 очень
душно
1012.0 988.3
18 20.06 СВ 2 10 км 3 балла +26.8 +18.4 60 +32 +32 очень
душно
1012.0 988.1 +30.9
21 20.06 СВ 1 10 км ясно +22.3 +17.6 75 +27 +27 душно 1013.0 988.7

 

Местоположение метеостанции Гайсин (Винницкая область, Украина): широта 48.80 долгота 29.40 высота над уровнем моря 211 м.

В архиве по умолчанию представлена погода в Гайсине за последнюю неделю. Архивные данные за месяц целиком и за предыдущие месяцы, начиная с января 2011 года, Вы можете получить, выбрав интересующий диапазон дат из раскрывающегося списка и нажав кнопку "Ввод!".


*Определитесь, кто Вы:
робот инопланетянин человек

Внимание! Время в таблицах - всемирное. Для получения местного времени необходимо прибавить поправку, которая равна 2 ч.

Смотрите также архив погоды в соседних городах и на ближайших метеорологических станциях:

Погода в Гайвороне (Кировоградская область, Украина) (61 км)
Погода в Умани (Черкасская область, Украина) (61 км)
Погода в Жашкове (Черкасская область, Украина) (71 км)
Погода в Виннице (Винницкая область, Украина) (75 км)
Погода в Жмеринке (Винницкая область, Украина) (99 км)
Погода в Каменке (Молдова) (100 км)
Погода в Сороках (Молдова) (105 км)
Погода в Звенигородке (Черкасская область, Украина) (114 км)
Погода в Белой Церкви (Киевская область, Украина) (118 км)
Погода в Рыбнице (Молдова) (118 км)

Пояснения к столбцам:

Ветер - указаны скорость ветра в м/с - средняя за 10 мин, порывы в срок и между сроками (в фигурных скобках) и направление, откуда дует ветер: С - северный, СВ - северо-восточный, В - восточный, ЮВ - юго-восточный, Ю - южный, ЮЗ - юго-западный, З - западный, СЗ - северо-западный.
Видимость - горизонтальная дальность видимости в метрах или километрах. При видимости от 1 до 10 км при отсутствии осадков обычно наблюдается дымка, при ухудшении видимости до 1 км и менее - туман. В сухую погоду видимость может ухудшаться дымом, пылью или мглою.
Явления - указаны атмосферные явления, наблюдавшиеся в срок или в последний час перед сроком; фигурными скобками обозначены явления, наблюдавшиеся между сроками (за 1-3 часа до срока); квадратными скобками обозначены град или гололедные отложения с указанием их диаметра в мм.
Облачность - указаны через наклонную черту общая и нижняя облачность в баллах и высота нижней границы облаков в метрах; квадратными скобками обозначены формы облаков: Ci - перистые, Cs - перисто-слоистые, Cc - перисто-кучевые, Ac - высококучевые, As - высокослоистые, Sc - слоисто-кучевые, Ns - слоисто-дождевые, Cu - кучевые, Cb - кучево-дождевые. Подробнее классификацию облаков см. в Атласе облаков (PDF).
T - Температура воздуха - температура, измеренная на высоте 2 м над землей.
Td - Температура точки росы - температура, при понижении до которой содержащийся в воздухе водяной пар достигнет насыщения.
f - Относительная влажность воздуха - влажноcть воздуха, измеренная на высоте 2 м над землей.
Te - Эффективная температура - температура, которую ощущает одетый по сезону человек в тени. Характеристика душности погоды. При расчете учитывается влияние влажности воздуха и скорости ветра на теплоощущения человека.
Tes - Эффективная температура на солнце - температура, которую ощущает человек, с поправкой на солнечный нагрев. Характеристика знойности погоды. Зависит от высоты солнца над горизонтом, облачности и скорости ветра. Ночью, в пасмурную погоду, а также при ветре 12 м/с и более поправка равна нулю.
P - Атмосферное давление - приведенное к уровню моря атмосферное давление.
Po - Атмосферное давление - измеренное на уровне метеостанции атмосферное давление.
Tmin - Минимальная температура - минимум температуры воздуха на высоте 2 м над землей.
Tmax - Максимальная температура - максимум температуры воздуха на высоте 2 м над землей.
R - Количество осадков - Количество выпавших осадков за период времени, мм. При наведении курсора мыши на число - период времени, за который выпало указанное количество осадков.
R24 - Количество осадков - Количество выпавших осадков за 24 часа, мм.
S - Снежный покров - Высота снежного покрова, см. При наведении курсора мыши на число - состояние снежного покрова и степень покрытия местности в баллах.